This is the latest recevied weather packets stored in our database for station/object KF6TYS-13. If no packets are shown the sender has not sent any weather packets the latest 10 day(s).
| Time | Temp. | Humidity | Pressure | Rain* | Wind** | Luminosity | Snow |
|---|---|---|---|---|---|---|---|
| 1777665625 | 57.22° C | 73% | 1013 hPa | 0 mm | - | - | - |
| 1777663824 | 57.22° C | 74% | 1013.2 hPa | 0 mm | - | - | - |
| 1777662024 | 56.67° C | 75% | 1013.6 hPa | 0 mm | - | - | - |
| 1777660223 | 56.67° C | 83% | 1013.9 hPa | 0 mm | - | - | - |
| 1777658422 | 55.56° C | 92% | 1014.1 hPa | 0 mm | - | - | - |
| 1777656621 | 55.56° C | 100% | 1014.3 hPa | 0 mm | - | - | - |
| 1777654821 | 55° C | 100% | 1014.6 hPa | 0 mm | - | - | - |
| 1777653019 | 54.44° C | 100% | 1014.6 hPa | 0 mm | - | - | - |
| 1777651218 | 54.44° C | 100% | 1014.7 hPa | 0 mm | - | - | - |
| 1777649417 | 54.44° C | 100% | 1014.4 hPa | 0 mm | - | - | - |
| 1777647617 | 54.44° C | 100% | 1014.2 hPa | 0 mm | - | - | - |
| 1777645816 | 54.44° C | 100% | 1014 hPa | 0 mm | - | - | - |
| 1777644014 | 53.33° C | 100% | 1013.7 hPa | 0 mm | - | - | - |
| 1777642214 | 53.33° C | 100% | 1013.3 hPa | 0 mm | - | - | - |
| 1777640413 | 53.33° C | 100% | 1013 hPa | 0 mm | - | - | - |
| 1777638612 | 52.78° C | 100% | 1013.1 hPa | 0 mm | - | - | - |
| 1777636841 | 52.22° C | 100% | 1012.9 hPa | 0 mm | - | - | - |
| 1777635041 | 52.78° C | 100% | 1013 hPa | 0 mm | - | - | - |
| 1777633239 | 52.78° C | 100% | 1012.9 hPa | 0 mm | - | - | - |
| 1777631438 | 52.78° C | 100% | 1012.9 hPa | 0 mm | - | - | - |
| 1777629637 | 52.78° C | 100% | 1013 hPa | 0 mm | - | - | - |
| 1777627837 | 52.78° C | 100% | 1013.1 hPa | 0 mm | - | - | - |
| 1777626035 | 52.78° C | 100% | 1013.3 hPa | 0 mm | - | - | - |
| 1777624235 | 52.78° C | 100% | 1013.4 hPa | 0 mm | - | - | - |
| 1777622433 | 53.33° C | 100% | 1013.4 hPa | 0 mm | - | - | - |
* Rain latest hour (hover to see other rain measurements)
** Current wind speed in m/s (hover to see current wind gust speed)